DW4505 Weather Reports


Display with metric or nautical units.
time (UTC)temp
F
wind
direction
speed
MPH
gust
MPH
rain 1hr
in
rain 24hr
in
rain mn
in
humidity
%
barometer
mb
20210622052009 81 185 0.0 3.0 0.00 0.01 0.00 77 1009.9
20210622051510 81 201 0.0 5.0 0.00 0.01 0.00 77 1010.0
20210622051009 81 213 0.0 5.0 0.00 0.01 0.00 77 1010.0
20210622050510 81 219 0.0 4.0 0.00 0.01 0.00 77 1010.0
20210622050010 81 233 0.0 1.0 0.00 0.01 0.00 77 1010.0
20210622045510 81 222 0.0 2.0 0.00 0.01 0.00 77 1010.1
20210622045009 81 201 0.0 4.0 0.00 0.01 0.00 77 1010.0
20210622044509 81 224 0.0 4.0 0.00 0.01 0.00 78 1010.1
20210622044009 81 210 1.0 7.0 0.00 0.01 0.00 78 1010.2
20210622043509 81 192 0.0 7.0 0.00 0.01 0.00 78 1010.1
20210622043009 81 215 0.0 3.0 0.00 0.01 0.00 78 1010.1
20210622042510 81 221 1.0 6.0 0.00 0.01 0.00 78 1010.2
20210622042009 82 212 0.0 6.0 0.00 0.01 0.00 79 1010.2
20210622041509 82 179 0.0 5.0 0.00 0.01 0.00 78 1010.1
20210622041009 82 196 0.0 5.0 0.00 0.01 0.00 78 1010.2
20210622040509 82 220 0.0 5.0 0.00 0.01 0.00 78 1010.2
20210622040117 82 203 0.0 4.0 0.00 0.01 0.00 78 1010.2
20210622035510 82 203 1.0 7.0 0.00 0.01 0.01 78 1010.3
20210622035010 82 197 1.0 7.0 0.00 0.01 0.01 78 1010.3
20210622034513 82 182 0.0 5.0 0.00 0.01 0.01 78 1010.3
20210622034009 82 200 0.0 5.0 0.00 0.01 0.01 78 1010.3
20210622033509 82 172 0.0 2.0 0.00 0.01 0.01 78 1010.3
20210622033010 82 173 0.0 3.0 0.00 0.01 0.01 78 1010.2
20210622032510 82 186 0.0 3.0 0.00 0.01 0.01 77 1010.2
20210622032010 82 130 0.0 2.0 0.00 0.01 0.01 77 1010.2
20210622031510 82 231 0.0 3.0 0.00 0.01 0.01 77 1010.0
20210622031010 82 234 0.0 3.0 0.00 0.01 0.01 77 1010.0
20210622030510 82 177 0.0 3.0 0.00 0.01 0.01 77 1010.0
20210622030010 82 198 0.0 3.0 0.00 0.01 0.01 77 1010.1
20210622025510 82 244 0.0 3.0 0.00 0.01 0.01 77 1010.1
20210622025010 82 232 0.0 3.0 0.00 0.01 0.01 77 1010.1
20210622024510 82 197 0.0 3.0 0.00 0.01 0.01 77 1010.0
20210622024010 82 175 0.0 1.0 0.00 0.01 0.01 77 1009.9
20210622023510 82 166 0.0 1.0 0.00 0.01 0.01 77 1009.8
20210622023009 82 188 0.0 1.0 0.00 0.01 0.01 77 1009.7
20210622022510 82 223 0.0 1.0 0.00 0.01 0.01 77 1009.7
20210622022010 83 0 0.0 0.0 0.00 0.01 0.01 76 1009.7
20210622021510 83 110 0.0 4.0 0.00 0.01 0.01 76 1009.7
20210622021010 83 171 0.0 4.0 0.00 0.02 0.01 76 1009.7
20210622020509 83 206 0.0 3.0 0.00 0.02 0.01 76 1009.6
20210622020010 83 226 0.0 3.0 0.00 0.03 0.01 76 1009.6
20210622015509 83 213 0.0 4.0 0.00 0.05 0.01 76 1009.6
20210622015009 83 213 0.0 4.0 0.00 0.06 0.01 75 1009.5
20210622014510 83 133 0.0 1.0 0.00 0.06 0.01 75 1009.5
20210622014010 83 133 0.0 1.0 0.00 0.09 0.01 75 1009.5
20210622013510 84 0 0.0 0.0 0.00 0.10 0.01 74 1009.4
20210622013009 84 242 0.0 1.0 0.00 0.11 0.01 74 1009.5
20210622012509 84 253 0.0 1.0 0.00 0.14 0.01 74 1009.5
20210622012009 84 227 0.0 3.0 0.00 0.16 0.01 73 1009.5
20210622011510 84 231 0.0 3.0 0.00 0.18 0.01 73 1009.5
20210622011009 84 316 0.0 1.0 0.00 0.22 0.01 73 1009.4
20210622010510 84 177 0.0 1.0 0.00 0.35 0.01 72 1009.4
20210622010010 84 230 0.0 1.0 0.00 0.37 0.01 72 1009.3
20210622005510 84 228 0.0 4.0 0.00 0.38 0.01 72 1009.3
20210622005010 85 226 0.0 4.0 0.00 0.39 0.01 72 1009.1
20210622004510 85 245 0.0 5.0 0.00 0.47 0.01 72 1009.2
20210622004010 85 236 0.0 5.0 0.00 0.63 0.01 71 1009.0
20210622003510 85 217 0.0 3.0 0.00 0.77 0.01 71 1008.9
20210622003010 85 143 0.0 1.0 0.00 0.80 0.01 70 1008.9
20210622002509 86 177 0.0 1.0 0.00 0.80 0.01 69 1008.9
20210622002010 86 226 0.0 3.0 0.00 0.80 0.01 69 1008.8
20210622001509 86 197 0.0 3.0 0.00 0.80 0.01 68 1008.7
20210622001009 87 145 0.0 3.0 0.00 0.80 0.01 67 1008.6
20210622000509 87 206 0.0 3.0 0.00 0.80 0.01 67 1008.5
20210622000010 87 228 0.0 3.0 0.00 0.80 0.01 66 1008.4
20210621235510 87 246 0.0 4.0 0.00 0.80 0.01 66 1008.4
20210621235010 87 188 0.0 4.0 0.00 0.80 0.01 66 1008.4
20210621234510 88 138 0.0 3.0 0.00 0.80 0.01 65 1008.4
20210621234010 88 219 0.0 2.0 0.00 0.80 0.01 65 1008.4
20210621233510 88 231 0.0 4.0 0.00 0.80 0.01 64 1008.4
20210621233009 88 215 1.0 4.0 0.00 0.80 0.01 64 1008.3
20210621232509 88 205 0.0 3.0 0.00 0.80 0.01 63 1008.2
20210621232011 88 225 0.0 6.0 0.00 0.80 0.01 63 1008.2
20210621231510 88 217 1.0 6.0 0.00 0.80 0.01 62 1008.2
20210621231010 89 214 1.0 6.0 0.00 0.80 0.01 62 1008.3
20210621230509 89 207 1.0 5.0 0.00 0.80 0.01 62 1008.3
20210621230009 89 218 1.0 8.0 0.00 0.80 0.01 63 1008.4
20210621225510 89 219 1.0 8.0 0.00 0.80 0.01 62 1008.4
20210621225010 89 174 1.0 10.0 0.00 0.80 0.01 62 1008.5
20210621224509 90 215 1.0 10.0 0.00 0.80 0.01 63 1008.6
20210621224010 90 204 1.0 9.0 0.00 0.80 0.01 63 1008.7
20210621223512 90 204 1.0 9.0 0.00 0.80 0.01 63 1008.6
20210621223012 90 235 1.0 5.0 0.00 0.80 0.01 64 1008.6
20210621222512 90 226 1.0 6.0 0.00 0.80 0.01 64 1008.6
20210621222010 90 218 1.0 6.0 0.00 0.80 0.01 62 1008.5
20210621221509 90 193 1.0 5.0 0.00 0.80 0.01 62 1008.5
20210621221010 91 210 1.0 5.0 0.00 0.80 0.01 62 1008.4
20210621220510 91 217 2.0 12.0 0.00 0.80 0.01 61 1008.3
20210621220010 92 217 2.0 12.0 0.00 0.80 0.01 60 1008.3
20210621215510 93 209 1.0 8.0 0.00 0.80 0.01 60 1008.3
20210621215010 93 204 1.0 8.0 0.00 0.80 0.01 61 1008.1
20210621214510 93 181 1.0 8.0 0.00 0.80 0.01 62 1008.0
20210621214010 93 151 1.0 7.0 0.00 0.80 0.01 61 1007.9
20210621213510 93 223 1.0 7.0 0.00 0.80 0.01 60 1007.8
20210621213009 92 247 1.0 10.0 0.00 0.80 0.01 59 1007.8
20210621212510 92 215 1.0 10.0 0.00 0.80 0.01 61 1007.9
20210621212009 93 188 1.0 9.0 0.00 0.80 0.01 61 1007.8
20210621211510 93 178 1.0 8.0 0.00 0.80 0.01 62 1007.8
20210621211009 93 184 1.0 7.0 0.00 0.80 0.01 61 1007.7
20210621210509 92 191 1.0 7.0 0.00 0.80 0.01 62 1007.7
20210621210009 92 214 1.0 9.0 0.00 0.80 0.01 62 1007.7
20210621205509 92 221 1.0 9.0 0.00 0.80 0.01 61 1007.7
20210621205010 93 204 1.0 5.0 0.00 0.80 0.01 61 1007.7
20210621204510 92 216 2.0 8.0 0.00 0.80 0.01 61 1007.8
20210621204010 93 219 2.0 8.0 0.00 0.80 0.01 59 1007.9
20210621203510 94 186 1.0 6.0 0.00 0.80 0.01 59 1007.9
20210621203010 93 205 1.0 9.0 0.00 0.80 0.01 60 1007.9
20210621202510 93 220 1.0 9.0 0.00 0.80 0.01 58 1008.0
20210621202010 93 218 1.0 7.0 0.00 0.80 0.01 59 1008.1
20210621201510 93 206 1.0 7.0 0.00 0.80 0.01 58 1008.2
20210621201010 94 224 1.0 7.0 0.00 0.80 0.01 60 1008.3
20210621200510 93 241 1.0 4.0 0.00 0.80 0.01 60 1008.3
20210621200010 93 228 1.0 4.0 0.00 0.80 0.01 60 1008.4
20210621195510 92 224 2.0 9.0 0.00 0.80 0.01 62 1008.4
20210621195010 93 222 1.0 9.0 0.00 0.80 0.01 60 1008.5
20210621194510 94 88 0.0 5.0 0.00 0.80 0.01 60 1008.4
20210621194010 93 147 1.0 8.0 0.00 0.80 0.01 62 1008.4
20210621193510 93 206 2.0 8.0 0.00 0.80 0.01 60 1008.3
20210621193010 93 201 1.0 8.0 0.00 0.80 0.01 60 1008.4
20210621192510 93 201 1.0 5.0 0.00 0.80 0.01 60 1008.5
20210621192010 93 221 1.0 7.0 0.00 0.80 0.01 62 1008.7
20210621191510 93 239 1.0 7.0 0.00 0.80 0.01 61 1008.6
20210621191011 92 222 2.0 10.0 0.00 0.80 0.01 63 1008.7
20210621190510 92 225 1.0 10.0 0.00 0.80 0.01 62 1008.8
20210621190010 93 219 1.0 8.0 0.00 0.80 0.01 63 1008.9
20210621185510 93 222 1.0 8.0 0.00 0.80 0.01 64 1008.9
20210621185011 93 224 1.0 8.0 0.00 0.80 0.01 62 1009.0
20210621184510 93 200 1.0 7.0 0.00 0.80 0.01 62 1009.1
20210621184010 93 222 1.0 7.0 0.00 0.80 0.01 63 1009.1
20210621183510 93 212 1.0 8.0 0.00 0.80 0.01 63 1009.2
20210621183011 93 184 1.0 8.0 0.00 0.80 0.01 64 1009.3
20210621182510 93 209 1.0 6.0 0.00 0.80 0.01 63 1009.4
20210621182010 93 215 0.0 3.0 0.00 0.80 0.01 64 1009.5
20210621181511 93 151 1.0 6.0 0.00 0.80 0.01 65 1009.6
20210621181010 92 128 1.0 6.0 0.00 0.80 0.01 64 1009.7
20210621180511 92 354 1.0 5.0 0.00 0.80 0.01 64 1009.9
20210621180010 93 259 1.0 5.0 0.00 0.80 0.01 64 1009.9
20210621175511 92 208 1.0 8.0 0.00 0.80 0.01 65 1010.0
20210621175011 92 206 1.0 8.0 0.00 0.80 0.01 64 1010.1
20210621174510 92 196 1.0 4.0 0.00 0.81 0.01 66 1010.3
20210621174010 92 189 1.0 4.0 0.00 0.83 0.01 64 1010.3
20210621173511 92 209 1.0 7.0 0.00 0.83 0.01 66 1010.3
20210621173010 92 209 1.0 7.0 0.00 0.83 0.01 67 1010.4
20210621172510 91 202 1.0 6.0 0.00 0.83 0.01 67 1010.5
20210621172010 91 236 1.0 7.0 0.00 0.83 0.01 69 1010.5
20210621171511 91 218 1.0 7.0 0.00 0.83 0.01 67 1010.7
20210621171010 90 208 1.0 8.0 0.00 0.83 0.01 69 1010.7
20210621170511 90 205 1.0 8.0 0.00 0.83 0.01 69 1010.8
20210621170011 90 199 1.0 8.0 0.00 0.83 0.01 69 1010.9
20210621165510 90 225 1.0 5.0 0.00 0.83 0.01 68 1011.0
20210621165010 90 249 1.0 5.0 0.00 0.83 0.01 70 1011.1
20210621164511 90 239 1.0 4.0 0.00 0.83 0.01 70 1011.0
20210621164011 90 233 1.0 6.0 0.00 0.83 0.01 69 1011.0
20210621163510 89 217 1.0 6.0 0.00 0.83 0.01 69 1011.0
20210621163010 89 209 1.0 8.0 0.00 0.83 0.01 72 1011.0
20210621162510 89 206 1.0 8.0 0.00 0.83 0.01 71 1010.9
20210621162010 89 147 1.0 7.0 0.00 0.83 0.01 72 1010.9
20210621161511 89 161 1.0 7.0 0.00 0.83 0.01 72 1010.8
20210621161010 89 270 0.0 4.0 0.00 0.83 0.01 71 1010.9
20210621160510 89 230 0.0 3.0 0.00 0.83 0.01 71 1010.9
20210621160010 89 235 1.0 3.0 0.00 0.83 0.01 72 1010.8
20210621155511 89 212 1.0 4.0 0.00 0.83 0.01 73 1010.8
20210621155012 88 186 1.0 5.0 0.00 0.83 0.01 72 1010.8
20210621154511 88 171 1.0 5.0 0.00 0.83 0.01 71 1010.8
20210621154012 89 191 1.0 5.0 0.00 0.83 0.01 73 1010.8
20210621153512 88 231 1.0 7.0 0.00 0.83 0.01 73 1010.9
20210621153012 88 259 1.0 7.0 0.00 0.83 0.01 73 1010.9
20210621152511 88 4 0.0 3.0 0.00 0.83 0.01 73 1010.9
20210621152010 88 224 1.0 6.0 0.00 0.83 0.01 74 1011.0
20210621151511 88 214 1.0 6.0 0.00 0.83 0.01 73 1011.0
20210621151011 88 199 0.0 4.0 0.00 0.83 0.01 74 1011.0
20210621150511 87 210 1.0 4.0 0.00 0.83 0.01 75 1011.1
20210621150011 87 192 1.0 7.0 0.00 0.83 0.01 75 1011.0
20210621145510 86 186 1.0 7.0 0.00 0.83 0.01 76 1011.0
20210621145011 86 226 0.0 7.0 0.00 0.83 0.01 76 1011.1
20210621144511 86 291 0.0 4.0 0.00 0.83 0.01 76 1011.1
20210621144011 86 325 0.0 2.0 0.00 0.83 0.01 77 1011.0
20210621143511 86 298 0.0 3.0 0.00 0.83 0.01 77 1011.0
20210621143011 86 246 0.0 3.0 0.00 0.83 0.01 78 1010.9
20210621142512 85 119 1.0 4.0 0.00 0.83 0.01 77 1010.9
20210621142011 84 64 1.0 6.0 0.00 0.83 0.01 80 1010.9
20210621141511 84 35 0.0 6.0 0.00 0.83 0.01 80 1010.8
20210621141011 84 245 0.0 4.0 0.00 0.83 0.01 81 1010.8
20210621140512 83 212 0.0 4.0 0.00 0.83 0.01 82 1010.7
20210621140012 82 47 0.0 1.0 0.00 0.83 0.01 83 1010.8
20210621135512 82 43 0.0 2.0 0.00 0.83 0.01 84 1010.8
20210621135012 81 17 0.0 3.0 0.00 0.83 0.01 85 1010.8
20210621134512 81 19 0.0 3.0 0.00 0.83 0.01 86 1010.8
20210621134012 80 285 0.0 2.0 0.00 0.83 0.01 86 1010.9
20210621133512 80 155 0.0 4.0 0.00 0.83 0.01 88 1010.8
20210621133011 79 149 0.0 4.0 0.00 0.83 0.01 88 1010.8
20210621132512 78 115 0.0 2.0 0.00 0.83 0.01 91 1010.8
20210621132012 78 172 0.0 2.0 0.00 0.83 0.01 91 1010.9
20210621131512 77 217 0.0 2.0 0.00 0.83 0.01 92 1010.9
20210621131011 76 226 0.0 1.0 0.00 0.83 0.01 92 1010.9
20210621130512 76 172 0.0 2.0 0.00 0.83 0.01 92 1010.8
20210621130012 76 74 0.0 2.0 0.00 0.83 0.01 93 1010.8
20210621125513 76 268 0.0 3.0 0.00 0.83 0.01 93 1010.7
20210621125011 76 263 0.0 3.0 0.00 0.83 0.01 93 1010.6
20210621124511 75 260 0.0 3.0 0.00 0.83 0.01 93 1010.6
20210621124012 75 258 0.0 3.0 0.00 0.83 0.01 93 1010.5
20210621123511 75 256 0.0 2.0 0.00 0.83 0.01 94 1010.5
20210621123012 75 256 0.0 2.0 0.00 0.83 0.01 94 1010.4
20210621122512 75 205 0.0 5.0 0.00 0.83 0.01 94 1010.5
20210621122012 74 204 0.0 5.0 0.00 0.83 0.01 94 1010.4
20210621121512 74 204 0.0 1.0 0.00 0.83 0.01 94 1010.4
20210621121011 74 17 0.0 1.0 0.00 0.83 0.01 94 1010.5
20210621120512 74 17 0.0 1.0 0.00 0.83 0.01 94 1010.4
20210621120012 74 51 0.0 1.0 0.00 0.83 0.01 94 1010.4
20210621115511 74 24 0.0 1.0 0.00 0.83 0.01 94 1010.3
20210621115012 74 356 0.0 1.0 0.00 0.83 0.01 94 1010.3
20210621114512 74 0 0.0 0.0 0.00 0.83 0.01 95 1010.2
20210621114011 73 269 0.0 2.0 0.00 0.83 0.01 95 1010.3
20210621113512 73 269 0.0 2.0 0.00 0.83 0.01 94 1010.2
20210621113012 73 271 0.0 3.0 0.00 0.83 0.01 94 1010.1
20210621112512 73 255 0.0 5.0 0.00 0.83 0.01 94 1010.0
20210621112012 73 272 0.0 5.0 0.00 0.83 0.01 94 1010.0
20210621111512 73 270 1.0 4.0 0.00 0.83 0.01 94 1010.0
20210621111012 73 235 0.0 4.0 0.00 0.84 0.01 94 1009.9
20210621110512 73 260 0.0 4.0 0.00 0.96 0.01 94 1009.8
20210621110012 73 268 0.0 3.0 0.00 1.07 0.01 94 1009.8
20210621105512 73 268 0.0 4.0 0.00 1.10 0.01 94 1009.7
20210621105012 73 289 0.0 4.0 0.00 1.10 0.01 94 1009.5
20210621104512 73 231 0.0 2.0 0.00 1.10 0.01 95 1009.4
20210621104012 73 177 0.0 3.0 0.00 1.10 0.01 95 1009.4
20210621103512 73 154 0.0 3.0 0.00 1.10 0.01 95 1009.3
20210621103012 73 113 0.0 5.0 0.00 1.10 0.01 95 1009.3
20210621102512 73 112 0.0 5.0 0.00 1.10 0.01 95 1009.1
20210621102012 73 268 0.0 3.0 0.00 1.10 0.01 95 1009.0
20210621101512 73 274 0.0 3.0 0.00 1.10 0.01 95 1008.9
20210621101012 73 269 0.0 3.0 0.00 1.11 0.01 95 1008.7
20210621100512 73 236 0.0 2.0 0.00 1.11 0.01 95 1008.4
20210621100012 73 219 0.0 2.0 0.00 1.12 0.01 95 1008.4
20210621095512 73 121 0.0 3.0 0.00 1.14 0.01 95 1008.4
20210621095012 73 148 0.0 3.0 0.00 1.15 0.01 95 1008.2
20210621094512 73 263 0.0 1.0 0.00 1.16 0.01 95 1008.1
20210621094013 73 0 0.0 0.0 0.00 1.17 0.01 95 1007.9
20210621093512 73 0 0.0 0.0 0.00 1.18 0.01 95 1007.8
20210621093012 73 230 0.0 1.0 0.00 1.20 0.01 95 1007.6
20210621092512 73 227 0.0 1.0 0.00 1.24 0.01 95 1007.6
20210621092013 73 227 0.0 1.0 0.00 1.26 0.01 95 1007.6
20210621091512 73 184 0.0 3.0 0.00 1.27 0.01 95 1007.5
20210621091012 73 184 0.0 3.0 0.00 1.27 0.01 95 1007.5
20210621090513 73 81 0.0 1.0 0.00 1.27 0.01 95 1007.5
20210621090013 73 82 0.0 1.0 0.00 1.28 0.01 95 1007.4
20210621085512 73 0 0.0 0.0 0.00 1.28 0.01 96 1007.3
20210621085012 73 0 0.0 0.0 0.00 1.28 0.01 96 1007.2
20210621084511 73 0 0.0 0.0 0.00 1.28 0.01 95 1007.1
20210621084012 73 0 0.0 0.0 0.00 1.28 0.01 96 1006.9
20210621083512 73 256 0.0 1.0 0.00 1.28 0.01 95 1006.9
20210621083012 73 256 0.0 1.0 0.00 1.28 0.01 96 1006.6
20210621082512 73 0 0.0 0.0 0.00 1.28 0.01 96 1006.6
20210621082012 73 0 0.0 0.0 0.00 1.28 0.01 95 1006.7
20210621081512 73 257 0.0 1.0 0.00 1.28 0.01 96 1006.8
20210621081012 73 257 0.0 1.0 0.00 1.28 0.01 95 1006.8
20210621080512 73 0 0.0 0.0 0.00 1.28 0.01 95 1006.7
20210621080012 73 0 0.0 0.0 0.01 1.29 0.01 95 1006.8
20210621075512 73 0 0.0 0.0 0.01 1.29 0.01 95 1006.8
20210621075012 73 0 0.0 0.0 0.01 1.29 0.01 95 1006.7
20210621074513 73 0 0.0 0.0 0.01 1.29 0.01 95 1006.6
20210621074012 73 0 0.0 0.0 0.01 1.29 0.01 95 1006.7
20210621073512 73 204 0.0 3.0 0.01 1.29 0.01 95 1006.6
20210621073012 73 204 0.0 3.0 0.01 1.29 0.01 95 1006.6
20210621072512 73 0 0.0 0.0 0.01 1.29 0.01 95 1006.6
20210621072012 73 0 0.0 0.0 0.01 1.29 0.01 95 1006.6
20210621071513 73 232 0.0 1.0 0.01 1.29 0.01 95 1006.5
20210621071011 73 235 0.0 1.0 0.01 1.29 0.01 95 1006.4
20210621070512 73 248 0.0 1.0 0.00 1.28 0.00 95 1006.5
20210621070012 73 246 0.0 1.0 0.00 1.28 0.00 95 1006.5
20210621065513 73 243 0.0 1.0 0.00 1.28 0.00 95 1006.6
20210621065012 73 0 0.0 0.0 0.00 1.28 0.00 95 1006.5
20210621064512 73 200 0.0 2.0 0.00 1.28 0.00 95 1006.5
20210621064012 73 199 0.0 2.0 0.00 1.28 0.00 95 1006.6
20210621063512 73 200 0.0 2.0 0.00 1.28 0.00 95 1006.7
20210621063013 73 230 0.0 2.0 0.00 1.28 0.00 95 1006.7
20210621062512 73 216 0.0 2.0 0.00 1.28 0.00 95 1006.7
20210621062012 73 218 0.0 3.0 0.00 1.28 0.00 95 1006.8
20210621061512 73 222 0.0 3.0 0.00 1.28 0.00 95 1006.9
20210621061012 73 203 0.0 2.0 0.00 1.28 0.00 95 1006.9
20210621060512 73 125 0.0 1.0 0.00 1.28 0.00 95 1006.9
20210621060012 73 95 0.0 1.0 0.00 1.28 0.00 95 1007.2
20210621055512 73 166 0.0 2.0 0.00 1.28 0.00 95 1007.1
20210621055012 73 166 0.0 2.0 0.00 1.28 0.00 95 1007.3
20210621054513 73 172 0.0 2.0 0.00 1.28 0.00 95 1007.3
20210621054013 73 172 0.0 2.0 0.00 1.28 0.00 95 1007.4
20210621053513 73 158 0.0 3.0 0.00 1.28 0.00 95 1007.4
20210621053012 73 164 0.0 3.0 0.00 1.28 0.00 95 1007.5
20210621052510 73 211 0.0 1.0 0.00 1.28 0.00 95 1007.6